Flag for Germany Weather past 2 weeks in Hofheim am Taunus, Hesse, Germany

Now
64 °F

Overcast.


Feels Like: 64 °F
Forecast: 53 / 65 °F
Wind: 8 mph from East

Location: Wiesbaden Airport

Current Time: May 5, 2015 at 2:25:58 AM

Latest Report: May 5, 2015 at 1:58 AM


Visibility: N/A

Pressure: 29.58 "Hg

Humidity: 78%

Dew point: 57 °F

Location of Hofheim am TaunusLocation

Historic Weather in Hofheim am Taunus — Graph

°F

Hofheim am Taunus temperature yesterday

Maximum temperature yesterday: 72 °F (at 4:58 PM)
Minimum temperature yesterday: 53 °F (at 6:58 AM)
Average temperature yesterday: 63 °F

Past Weeks' High & Low Weather Summary

 TemperatureHumidityPressure
High74 °F (Apr 21, 3:58 PM)100% (Apr 26, 1:58 AM)30.84 "Hg (Apr 26, 1:58 AM)
Low34 °F (Apr 29, 4:58 AM)23% (Apr 21, 2:58 PM)29.57 "Hg (Apr 27, 6:58 AM)
Average54 °F71%29.95 "Hg
* Reported Apr 20 4:55 AM — May 5 12:58 AM, Hofheim am Taunus, Weather by CustomWeather, © 2015

Note: Actual official high and low records may vary slightly from our data, if they occured in-between our weather recording intervals... More about our weather records

Advertising

Hofheim am Taunus weather history for previous 24 hours

 ConditionsComfort  
Time TempWeatherWind HumidityBarometerVisibility
12:58 AM
Tue, May 5
64 °FPassing clouds.10 mph80%29.61 "HgN/A
11:59 PM
Mon, May 4
63 °FOvercast.8 mph83%29.65 "HgN/A
11:58 PM64 °FLight rain. Overcast.8 mph80%29.65 "HgN/A
11:00 PM63 °FPassing clouds.7 mph88%29.68 "HgN/A
9:58 PM66 °FPassing clouds.7 mph68%29.70 "HgN/A
8:58 PM66 °FMore clouds than sun.8 mph68%29.71 "HgN/A
7:58 PM68 °FPartly sunny.6 mph64%29.73 "HgN/A
6:58 PM70 °FPassing clouds.5 mph57%29.75 "HgN/A
5:58 PM72 °FSunny.3 mph50%29.78 "HgN/A
4:58 PM72 °FSunny.5 mph52%29.80 "HgN/A
3:58 PM71 °FPassing clouds.6 mph55%29.80 "HgN/A
2:58 PM70 °FPassing clouds.9 mph53%29.82 "HgN/A
1:59 PM70 °FScattered clouds.10 mph57%29.83 "HgN/A
12:58 PM68 °FPartly sunny.12 mph60%29.85 "HgN/A
11:58 AM66 °FPartly sunny.12 mph66%29.85 "HgN/A
10:58 AM65 °FBroken clouds.10 mph74%29.85 "HgN/A
10:00 AM61 °FLight rain. Broken clouds.6 mph100%29.84 "HgN/A
9:58 AM61 °FScattered clouds.5 mph100%29.84 "HgN/A
9:01 AM59 °FPartly sunny.6 mph100%29.84 "HgN/A
8:58 AM59 °FScattered clouds.5 mph100%29.84 "HgN/A
7:58 AM55 °FScattered clouds.1 mph100%29.83 "HgN/A
6:58 AM53 °FFog.5 mph100%29.81 "Hg4 mi
5:58 AM54 °FFog.No wind100%29.80 "Hg1 mi
5:04 AM54 °FFog.No wind100%29.79 "Hg1 mi
3:58 AM55 °FPassing clouds.6 mph100%29.78 "HgN/A
3:04 AM55 °FFog.5 mph100%29.77 "Hg2 mi
Weather by CustomWeather, © 2015

See weather overviewHow to use our weather pages